ZHONGXING-2C

Last updated on Tue Sep 16 2025 00:02:48 GMT+0000 (Coordinated Universal Time)

1 41021U 15063A 25258.66131858 -.00000341 00000+0 00000+0 0 9990 2 41021 0.0538 108.1869 0008309 111.4574 116.7365 1.00271702 36235
UTC large
Height (km)
Speed (km/s)
/
Latitude / Longitude
Inclination (degrees)
Orbital Period (minutes)
Azimuth
Elevation
Range (km)
Doppler Factor

Next 0 passes for location: London (51.5072 / 0.1276)

Sorry there are no passes over London.